19960807,155819,57499,32.621,-117.254,19.95,33.601,0.403
19960807,160918,58158,32.631,-117.271,20.057,33.608,0.41
19960807,161938,58778,32.658,-117.284,19.983,33.609,0.471
19960807,162959,59399,32.687,-117.297,19.817,33.607,0.436
19960807,163917,59957,32.715,-117.31,19.642,33.6,0.636
19960807,164938,60578,32.741,-117.326,19.846,33.613,0.57
19960807,165959,61199,32.772,-117.328,19.944,33.614,0.467
19960807,170203,61323,32.794,-117.324,19.759,33.602,0.737
19960807,170910,61750,32.807,-117.322,19.814,33.621,0.881
19960807,171931,62371,32.83,-117.317,20.152,33.622,1.297
19960807,172951,62991,32.861,-117.311,19.936,33.609,1.322
19960807,173944,63584,32.89,-117.306,19.825,33.599,8.416
19960807,174902,64142,32.921,-117.304,21.501,33.651,2.015
19960807,175923,64763,32.947,-117.303,21.822,33.45,1.052
19960807,180944,65384,32.954,-117.307,21.829,33.642,0.696
19960807,181902,65942,32.956,-117.308,21.808,33.646,0.727
19960807,182923,66563,32.956,-117.31,21.778,33.649,0.974
19960807,183943,67183,32.956,-117.311,21.796,33.649,1.082
19960807,184902,67742,32.955,-117.312,21.768,33.646,1.123
19960807,185923,68363,32.954,-117.313,21.746,33.651,1.175
19960807,190947,68987,32.954,-117.315,21.715,33.647,1.341
19960807,191905,69545,32.954,-117.316,21.662,33.646,1.273
19960807,192926,70166,32.955,-117.316,21.671,33.647,1.251
19960807,193947,70787,32.957,-117.315,21.698,33.651,1.24
19960807,194905,71345,32.957,-117.317,21.633,33.642,0.983
19960807,195926,71966,32.956,-117.318,21.567,33.644,0.777
19960807,200946,72586,32.955,-117.322,21.649,33.645,0.785
19960807,201905,73145,32.954,-117.326,21.748,33.646,0.854
19960807,202926,73766,32.953,-117.332,21.799,33.637,0.89
19960807,203945,74385,32.953,-117.339,21.725,33.652,0.752
19960807,204922,74962,32.952,-117.347,21.636,33.646,0.068
19960807,205944,75584,32.952,-117.353,21.463,33.645,0.539
19960807,210903,76143,32.951,-117.356,21.433,33.65,0.489
19960807,211928,76768,32.951,-117.362,21.407,33.642,0.499
19960807,212949,77389,32.952,-117.364,21.429,33.651,0.535
19960807,213907,77947,32.954,-117.363,21.545,33.654,0.592
19960807,214928,78568,32.955,-117.365,21.622,33.659,0.641
19960807,215948,79188,32.937,-117.38,21.652,33.658,0.636
19960807,220907,79747,32.914,-117.396,21.703,33.557,0.205
19960807,221928,80368,32.907,-117.398,21.696,33.648,0.169
19960807,222948,80988,32.905,-117.4,21.693,33.652,0.168
19960807,223907,81547,32.904,-117.401,21.693,33.65,0.168
19960807,224928,82168,32.903,-117.403,21.706,33.651,0.167
19960807,225949,82789,32.901,-117.404,21.719,33.65,0.167
19960807,230907,83347,32.9,-117.405,21.735,33.648,0.17
19960807,231933,83973,32.898,-117.408,21.743,33.642,0.17
19960807,232954,84594,32.896,-117.41,21.745,33.648,0.167
19960807,233913,85153,32.895,-117.413,21.742,33.649,0.17
19960807,234934,85774,32.894,-117.418,21.716,33.655,0.164
19960807,235955,86395,32.892,-117.421,21.705,33.654,0.163
19960808,000914,86954,32.89,-117.427,21.674,33.65,0.161
19960808,001935,87575,32.887,-117.434,21.548,33.633,0.152
19960808,002956,88196,32.893,-117.426,21.634,33.635,0.163
19960808,003915,88755,32.891,-117.426,21.701,33.649,0.168
19960808,004936,89376,32.889,-117.427,21.688,33.652,0.165
19960808,005956,89996,32.887,-117.431,21.667,33.66,0.164
19960808,010915,90555,32.879,-117.452,21.486,33.65,0.153
19960808,011940,91180,32.868,-117.485,21.414,33.64,0.146
19960808,012900,91740,32.855,-117.516,21.229,33.654,0.144
19960808,013920,92360,32.848,-117.529,21.217,33.589,0.146
19960808,014942,92982,32.846,-117.532,21.221,33.66,0.143
19960808,015901,93541,32.844,-117.535,21.249,33.669,0.141
19960808,020922,94162,32.843,-117.535,21.241,33.67,0.134
19960808,021943,94783,32.841,-117.537,21.244,33.662,0.133
19960808,022902,95342,32.839,-117.539,21.231,33.673,0.133
19960808,023922,95962,32.838,-117.54,21.226,33.672,0.134
19960808,024944,96584,32.839,-117.542,21.218,33.67,0.134
19960808,025903,97143,32.838,-117.545,21.208,33.668,0.136
19960808,030924,97764,32.837,-117.549,21.222,33.673,0.138
19960808,031945,98385,32.836,-117.554,21.23,33.674,0.136
19960808,032908,98948,32.836,-117.557,21.183,33.671,0.136
19960808,033929,99569,32.834,-117.56,21.101,33.669,0.129
19960808,034951,100191,32.833,-117.563,21.118,33.66,0.129
19960808,035910,100750,32.83,-117.57,21.106,33.666,0.13
19960808,040931,101371,32.817,-117.598,21.196,33.681,0.13
19960808,041952,101992,32.803,-117.631,21.279,33.674,0.148
19960808,042911,102551,32.788,-117.661,21.098,33.657,0.142
19960808,043930,103170,32.773,-117.692,21.086,33.655,0.137
19960808,044947,103787,32.757,-117.724,21.162,33.658,0.133
19960808,045906,104346,32.742,-117.754,21.027,33.656,0.134
19960808,050927,104967,32.726,-117.784,20.95,33.65,0.137
19960808,051949,105589,32.71,-117.816,20.917,33.645,0.136
19960808,052912,106152,32.695,-117.846,20.963,33.648,0.138
19960808,053933,106773,32.681,-117.87,20.866,33.576,0.144
19960808,054955,107395,32.68,-117.877,20.714,33.638,0.145
19960808,055914,107954,32.68,-117.88,20.658,33.631,0.146
19960808,060935,108575,32.679,-117.883,20.609,33.635,0.146
19960808,061956,109196,32.679,-117.885,20.591,33.63,0.145
19960808,062915,109755,32.679,-117.888,20.56,33.628,0.147
19960808,063937,110377,32.678,-117.891,20.576,33.636,0.149
19960808,064959,110999,32.677,-117.894,20.622,33.638,0.15
19960808,065917,111557,32.677,-117.897,20.633,33.632,0.15
19960808,070939,112179,32.677,-117.901,20.667,33.644,0.149
19960808,071858,112738,32.677,-117.906,20.71,33.646,0.149
19960808,072919,113359,32.677,-117.911,20.727,33.644,0.151
19960808,073944,113984,32.677,-117.917,20.775,33.64,0.149
19960808,074903,114543,32.679,-117.924,20.819,33.651,0.151
19960808,075925,115165,32.682,-117.927,20.832,33.656,0.151
19960808,080946,115786,32.685,-117.929,20.843,33.653,0.15
19960808,081904,116344,32.687,-117.933,20.814,33.665,0.15
19960808,082925,116965,32.675,-117.954,20.824,33.686,0.145
19960808,083946,117586,32.657,-117.985,20.912,33.704,0.145
19960808,084905,118145,32.64,-118.015,20.974,33.706,0.138
19960808,085927,118767,32.623,-118.043,20.983,33.713,0.135
19960808,090948,119388,32.606,-118.073,20.797,33.697,0.135
19960808,091907,119947,32.59,-118.101,20.692,33.688,0.134
19960808,092928,120568,32.573,-118.128,20.621,33.685,0.143
19960808,093952,121192,32.555,-118.156,20.486,33.692,0.136
19960808,094911,121751,32.538,-118.182,20.632,33.701,0.131
19960808,095932,122372,32.519,-118.206,20.845,33.669,0.124
19960808,100954,122994,32.51,-118.218,20.976,33.683,0.128
19960808,101911,123551,32.509,-118.22,20.988,33.698,0.13
19960808,102933,124173,32.508,-118.222,20.998,33.698,0.13
19960808,103954,124794,32.507,-118.224,20.998,33.688,0.131
19960808,104914,125354,32.506,-118.226,20.979,33.698,0.132
19960808,105935,125975,32.505,-118.228,20.922,33.7,0.134
19960808,110956,126596,32.504,-118.23,20.876,33.694,0.137
19960808,111915,127155,32.503,-118.234,20.834,33.692,0.139
19960808,112937,127777,32.502,-118.239,20.821,33.688,0.138
19960808,113958,128398,32.501,-118.245,20.797,33.681,0.143
19960808,114921,128961,32.501,-118.249,20.749,33.681,0.142
19960808,115943,129583,32.504,-118.247,20.76,33.689,0.14
19960808,120902,130142,32.509,-118.228,20.856,33.711,0.133
19960808,121923,130763,32.513,-118.216,20.834,33.711,0.125
19960808,122944,131384,32.513,-118.217,20.831,33.708,0.124
19960808,123903,131943,32.513,-118.219,20.827,33.715,0.126
19960808,124924,132564,32.507,-118.233,20.836,33.705,0.13
19960808,125946,133186,32.492,-118.263,20.672,33.69,0.137
19960808,130905,133745,32.479,-118.293,20.612,33.695,0.13
19960808,131926,134366,32.466,-118.323,20.665,33.709,0.122
19960808,132948,134988,32.452,-118.354,20.255,33.693,0.123
19960808,133907,135547,32.439,-118.384,19.758,33.658,0.123
19960808,134932,136172,32.426,-118.414,19.355,33.621,0.128
19960808,135953,136793,32.411,-118.444,19.248,33.611,0.131
19960808,140912,137352,32.397,-118.473,19.753,33.65,0.127
19960808,141933,137973,32.382,-118.502,19.997,33.664,0.118
19960808,142955,138595,32.365,-118.53,19.966,33.661,0.121
19960808,143914,139154,32.35,-118.551,19.765,33.64,0.125
19960808,144936,139776,32.349,-118.557,19.717,33.651,0.125
19960808,145957,140397,32.351,-118.559,19.71,33.648,0.127
19960808,150916,140956,32.353,-118.561,19.713,33.639,0.127
19960808,151937,141577,32.354,-118.563,19.873,33.634,0.131
19960808,152956,142196,32.356,-118.564,19.886,33.638,0.133
19960808,153916,142756,32.358,-118.564,19.87,33.639,0.135
19960808,154941,143381,32.36,-118.567,19.868,33.637,0.139
19960808,155900,143940,32.362,-118.572,19.937,33.631,0.142
19960808,160921,144561,32.366,-118.576,19.96,33.635,0.137
19960808,161942,145182,32.37,-118.579,19.949,33.644,0.138
19960808,162901,145741,32.374,-118.577,19.965,33.648,0.138
19960808,163922,146362,32.375,-118.575,19.922,33.636,0.144
19960808,164944,146984,32.363,-118.597,19.91,33.651,0.141
19960808,165903,147543,32.35,-118.623,20.172,33.654,0.144
19960808,170924,148164,32.337,-118.65,20.544,33.708,0.146
19960808,171945,148785,32.322,-118.679,20.205,33.712,0.177
19960808,172904,149344,32.307,-118.707,20.138,33.705,0.174
19960808,173926,149966,32.292,-118.734,19.295,33.716,0.326
19960808,174947,150587,32.275,-118.762,18.739,33.741,0.51
19960808,175909,151149,32.256,-118.788,19.065,33.77,0.417
19960808,180930,151770,32.237,-118.813,19.022,33.776,0.45
19960808,181951,152391,32.216,-118.839,18.989,33.755,0.479
19960808,182909,152949,32.198,-118.863,18.893,33.751,0.727
19960808,183930,153570,32.183,-118.885,18.899,33.754,0.722
19960808,184849,154129,32.18,-118.89,18.86,33.76,0.75
19960808,191416,155656,32.176,-118.891,18.814,33.763,0.806
19960808,192918,156558,32.174,-118.891,18.757,33.747,0.963
19960808,193957,157197,32.174,-118.891,18.773,33.753,1.033
19960808,194938,157778,32.172,-118.891,18.778,33.747,0.981
19960808,195919,158359,32.171,-118.891,18.783,33.741,0.933
19960808,200958,158998,32.17,-118.888,18.783,33.748,0.847
19960808,201939,159579,32.169,-118.886,18.788,33.752,0.892
19960808,202919,160159,32.167,-118.888,18.635,33.747,0.858
19960808,203959,160799,32.164,-118.891,18.497,33.739,0.793
19960808,204939,161379,32.162,-118.895,18.493,33.734,0.663
19960808,205920,161960,32.16,-118.898,18.502,33.737,0.648
19960808,210902,162542,32.157,-118.901,18.512,33.739,0.648
19960808,211941,163181,32.155,-118.902,18.491,33.746,0.725
19960808,212926,163766,32.154,-118.901,18.468,33.736,0.73
19960808,213907,164347,32.153,-118.901,18.472,33.736,0.779
19960808,214946,164986,32.149,-118.906,18.467,33.738,0.68
19960808,215927,165567,32.135,-118.934,18.298,33.724,0.446
19960808,220908,166148,32.121,-118.961,18.195,33.703,0.408
19960808,221947,166787,32.107,-118.991,18.08,33.7,0.349
19960808,222928,167368,32.094,-119.021,17.821,33.682,0.465
19960808,223909,167949,32.081,-119.05,17.978,33.671,0.41
19960808,224948,168588,32.068,-119.08,17.985,33.665,0.516
19960808,225929,169169,32.055,-119.11,17.971,33.66,0.601
19960808,230910,169750,32.044,-119.139,18.209,33.686,0.41
19960808,231953,170393,32.033,-119.169,18.246,33.693,0.385
19960808,232934,170974,32.022,-119.2,18.143,33.668,0.423
19960808,233916,171556,32.015,-119.227,18.096,33.668,0.429
19960808,234955,172195,32.013,-119.234,18.091,33.668,0.45
19960808,235936,172776,32.012,-119.234,18.09,33.755,0.457
19960809,000917,173357,32.011,-119.234,18.074,33.667,0.44
19960809,001956,173996,32.011,-119.234,18.058,33.664,0.454
19960809,002937,174577,32.01,-119.234,18.053,33.669,0.459
19960809,003918,175158,32.009,-119.234,18.048,33.666,0.44
19960809,004957,175797,32.009,-119.233,18.047,33.664,0.396
19960809,005938,176378,32.009,-119.233,18.039,33.669,0.381
19960809,010919,176959,32.008,-119.233,18.026,33.668,0.378
19960809,011904,177544,32.007,-119.233,18.016,33.666,0.378
19960809,012943,178183,32.005,-119.23,18.017,33.662,0.369
19960809,013924,178764,32.004,-119.229,18.007,33.664,0.369
19960809,014905,179345,32.004,-119.23,18.009,33.666,0.376
19960809,015944,179984,32.004,-119.23,18.005,33.667,0.38
19960809,020925,180565,32.002,-119.233,17.999,33.67,0.392
19960809,021906,181146,32,-119.235,17.97,33.668,0.401
19960809,022945,181785,31.997,-119.238,17.952,33.667,0.414
19960809,023926,182366,31.99,-119.249,17.918,33.669,0.463
19960809,024907,182947,31.975,-119.274,17.831,33.657,0.615
19960809,025946,183586,31.959,-119.302,17.688,33.625,0.467
19960809,030928,184168,31.942,-119.33,17.63,33.607,0.51
19960809,031913,184753,31.927,-119.359,17.144,33.465,0.514
19960809,032953,185393,31.911,-119.388,17.362,33.517,0.55
19960809,033935,185975,31.895,-119.418,17.191,33.407,0.419
19960809,034917,186557,31.882,-119.446,17.177,33.294,0.254
19960809,035956,187196,31.87,-119.477,17.286,33.304,0.251
19960809,040937,187777,31.859,-119.509,17.161,33.326,0.332
19960809,041918,188358,31.852,-119.54,17.386,33.287,0.215
19960809,042957,188997,31.848,-119.567,17.329,33.297,0.226
19960809,043939,189579,31.846,-119.574,17.263,33.295,0.232
19960809,044920,190160,31.844,-119.576,17.092,33.277,0.267
19960809,045959,190799,31.843,-119.576,17.034,33.283,0.292
19960809,050944,191384,31.842,-119.578,16.974,33.301,0.304
19960809,051925,191965,31.84,-119.579,17.109,33.256,0.235
19960809,052906,192546,31.837,-119.58,17.21,33.249,0.208
19960809,053945,193185,31.834,-119.581,17.359,33.248,0.189
19960809,054927,193767,31.832,-119.582,17.454,33.259,0.175
19960809,055908,194348,31.828,-119.585,17.501,33.261,0.173
19960809,060947,194987,31.824,-119.589,17.501,33.265,0.174
19960809,061928,195568,31.821,-119.594,17.469,33.263,0.185
19960809,062909,196149,31.818,-119.596,17.482,33.266,0.204
19960809,063948,196788,31.816,-119.6,17.507,33.263,0.199
19960809,064930,197370,31.811,-119.613,17.497,33.26,0.199
19960809,065911,197951,31.797,-119.64,17.507,33.26,0.193
19960809,070954,198594,31.782,-119.671,17.624,33.281,0.169
19960809,071935,199175,31.768,-119.701,17.686,33.295,0.166
19960809,072916,199756,31.755,-119.732,17.334,33.297,0.28
19960809,073955,200395,31.741,-119.763,17.508,33.295,0.21
19960809,074936,200976,31.727,-119.793,17.829,33.319,0.149
19960809,075917,201557,31.713,-119.821,18.08,33.335,0.131
19960809,080957,202197,31.699,-119.851,18.048,33.319,0.132
19960809,081938,202778,31.685,-119.88,17.99,33.301,0.132
19960809,082919,203359,31.671,-119.908,17.919,33.294,0.136
19960809,083958,203998,31.657,-119.938,17.868,33.294,0.138
19960809,084940,204580,31.642,-119.968,17.868,33.302,0.138
19960809,085920,205160,31.628,-119.996,17.866,33.305,0.137
19960809,090905,205745,31.615,-120.025,17.841,33.303,0.136
19960809,091944,206384,31.601,-120.055,17.795,33.299,0.145
19960809,092925,206965,31.587,-120.086,17.762,33.3,0.153
19960809,093906,207546,31.574,-120.115,17.829,33.297,0.14
19960809,094946,208186,31.559,-120.146,17.928,33.299,0.133
19960809,095927,208767,31.545,-120.177,18.016,33.314,0.128
19960809,100908,209348,31.531,-120.207,18.078,33.329,0.121
19960809,101947,209987,31.517,-120.237,18.217,33.36,0.121
19960809,102928,210568,31.511,-120.25,18.233,33.348,0.124
19960809,103910,211150,31.51,-120.252,18.23,33.347,0.125
19960809,104949,211789,31.508,-120.254,18.229,33.351,0.124
19960809,105934,212374,31.508,-120.254,18.231,33.334,0.124
19960809,110916,212956,31.507,-120.255,18.229,33.339,0.124
19960809,111955,213595,31.506,-120.255,18.218,33.342,0.124
19960809,112936,214176,31.506,-120.258,18.195,33.334,0.124
19960809,113917,214757,31.506,-120.263,18.179,33.333,0.123
19960809,114956,215396,31.506,-120.269,18.17,33.323,0.123
19960809,115937,215977,31.506,-120.275,18.152,33.328,0.123
19960809,120919,216559,31.504,-120.279,18.129,33.325,0.126
19960809,121958,217198,31.504,-120.276,18.134,33.325,0.125
19960809,122940,217780,31.509,-120.256,18.191,33.341,0.122
19960809,123921,218361,31.511,-120.248,18.234,33.364,0.118
19960809,124903,218943,31.51,-120.251,18.246,33.363,0.118
19960809,125946,219586,31.508,-120.253,18.251,33.361,0.117
19960809,130927,220167,31.506,-120.256,18.244,33.358,0.118
19960809,131907,220747,31.501,-120.265,18.204,33.343,0.12
19960809,132947,221387,31.487,-120.292,18.128,33.324,0.122
19960809,133927,221967,31.471,-120.323,18.168,33.335,0.118
19960809,134909,222549,31.456,-120.352,18.337,33.398,0.113
19960809,135948,223188,31.441,-120.382,18.403,33.409,0.113
19960809,140929,223769,31.426,-120.412,18.408,33.421,0.111
19960809,141910,224350,31.412,-120.441,18.445,33.44,0.11
19960809,142950,224990,31.398,-120.472,18.499,33.457,0.109
19960809,143931,225571,31.384,-120.503,18.472,33.444,0.111
19960809,144916,226156,31.37,-120.533,18.39,33.414,0.112
19960809,145956,226796,31.355,-120.565,18.273,33.372,0.115
19960809,150937,227377,31.34,-120.596,18.533,33.425,0.111
19960809,151919,227959,31.326,-120.626,18.595,33.428,0.111
19960809,152958,228598,31.312,-120.657,18.755,33.45,0.111
19960809,153939,229179,31.297,-120.688,18.779,33.459,0.113
19960809,154921,229761,31.283,-120.719,18.753,33.451,0.113
19960809,155902,230342,31.268,-120.748,18.782,33.454,0.113
19960809,160941,230981,31.253,-120.78,18.784,33.454,0.113
19960809,161922,231562,31.238,-120.811,18.962,33.464,0.111
19960809,162903,232143,31.224,-120.841,19.094,33.474,0.114
19960809,163942,232782,31.208,-120.871,18.856,33.441,0.119
19960809,164927,233367,31.191,-120.9,18.724,33.411,0.12
19960809,165909,233949,31.182,-120.919,18.754,33.414,0.117
19960809,170948,234588,31.185,-120.923,18.793,33.419,0.115
19960809,171929,235169,31.188,-120.927,18.829,33.429,0.116
19960809,172910,235750,31.189,-120.934,18.873,33.446,0.119
19960809,173950,236390,31.19,-120.938,18.934,33.46,0.117
19960809,174931,236971,31.191,-120.941,18.987,33.464,0.114
19960809,175913,237553,31.193,-120.943,18.999,33.469,0.112
19960809,180952,238192,31.195,-120.945,19.03,33.475,0.111
19960809,181934,238774,31.196,-120.947,19.048,33.474,0.11
19960809,182915,239355,31.197,-120.948,19.053,33.483,0.107
19960809,183955,239995,31.197,-120.95,19.064,33.475,0.108
19960809,184940,240580,31.197,-120.952,19.072,33.477,0.111
19960809,185921,241161,31.198,-120.954,19.078,33.479,0.11
19960809,190215,241335,31.198,-120.956,19.089,33.477,0.113
19960809,192902,242942,31.199,-120.958,19.089,33.475,0.123
19960809,193941,243581,31.2,-120.959,19.089,33.471,0.123
19960809,194921,244161,31.2,-120.96,19.086,33.473,0.124
19960809,195902,244742,31.198,-120.968,19.085,33.474,0.122
19960809,200941,245381,31.184,-120.994,19.072,33.474,0.118
19960809,201922,245962,31.168,-121.022,19.093,33.48,0.116
19960809,202904,246544,31.153,-121.049,19.117,33.479,0.117
19960809,203943,247183,31.137,-121.078,19.129,33.477,0.115
19960809,204925,247765,31.121,-121.106,19.12,33.482,0.115
19960809,205906,248346,31.105,-121.134,19.07,33.472,0.118
19960809,210945,248985,31.089,-121.163,18.956,33.453,0.121
19960809,211926,249566,31.073,-121.192,18.783,33.417,0.122
19960809,212907,250147,31.057,-121.22,18.648,33.372,0.118
19960809,213946,250786,31.04,-121.249,18.456,33.295,0.118
19960809,214927,251367,31.024,-121.278,18.469,33.295,0.118
19960809,215908,251948,31.008,-121.306,18.462,33.272,0.12
19960809,220947,252587,30.992,-121.334,18.471,33.266,0.125
19960809,221928,253168,30.975,-121.363,18.466,33.285,0.128
19960809,222910,253750,30.959,-121.39,18.478,33.326,0.122
19960809,223949,254389,30.943,-121.419,18.515,33.34,0.118
19960809,224930,254970,30.925,-121.447,18.578,33.367,0.115
19960809,225911,255551,30.91,-121.475,18.62,33.381,0.118
19960809,230950,256190,30.893,-121.505,18.822,33.434,0.118
19960809,231935,256775,30.876,-121.534,19.245,33.533,0.111
19960809,232916,257356,30.864,-121.557,19.304,33.547,0.112
19960809,233956,257996,30.853,-121.577,19.205,33.518,0.112
19960809,234936,258576,30.847,-121.59,19.166,33.501,0.112
19960809,235918,259158,30.847,-121.593,19.147,33.493,0.113
19960810,000957,259797,30.847,-121.595,19.142,33.488,0.112
19960810,001938,260378,30.847,-121.596,19.131,33.484,0.111
19960810,002920,260960,30.847,-121.597,19.117,33.48,0.111
19960810,003958,261598,30.848,-121.599,19.096,33.477,0.111
19960810,004939,262179,30.847,-121.597,19.099,33.485,0.111
19960810,005920,262760,30.848,-121.594,19.121,33.489,0.111
19960810,010902,263342,30.85,-121.594,19.11,33.486,0.111
19960810,011941,263981,30.852,-121.592,19.095,33.483,0.111
19960810,012923,264563,30.853,-121.592,19.079,33.485,0.111
19960810,013904,265144,30.855,-121.594,19.058,33.481,0.111
19960810,014943,265783,30.858,-121.597,19.034,33.466,0.111
19960810,015925,266365,30.86,-121.601,19.002,33.461,0.111
19960810,020906,266946,30.861,-121.603,18.964,33.448,0.111
19960810,021945,267585,30.861,-121.61,18.761,33.375,0.114
19960810,022926,268166,30.849,-121.635,18.298,33.229,0.124
19960810,023907,268747,30.835,-121.662,18.411,33.273,0.119
19960810,024946,269386,30.819,-121.692,18.821,33.429,0.113
19960810,025927,269967,30.804,-121.721,19.186,33.542,0.11
19960810,030909,270549,30.79,-121.75,19.21,33.543,0.109
19960810,031952,271192,30.774,-121.78,19.171,33.549,0.109
19960810,032934,271774,30.76,-121.809,19.134,33.552,0.109
19960810,033915,272355,30.745,-121.838,19.141,33.558,0.111
19960810,034954,272994,30.73,-121.868,19.125,33.552,0.111
19960810,035935,273575,30.716,-121.897,19.084,33.535,0.111
19960810,040916,274156,30.701,-121.925,19.006,33.494,0.115
19960810,041955,274795,30.685,-121.953,19.338,33.599,0.111
19960810,042936,275376,30.669,-121.982,19.494,33.655,0.111
19960810,043916,275956,30.654,-122.009,19.547,33.692,0.111
19960810,044956,276596,30.638,-122.037,19.593,33.728,0.111
19960810,045937,277177,30.622,-122.066,19.576,33.709,0.111
19960810,050917,277757,30.606,-122.092,19.301,33.577,0.111
19960810,051956,278396,30.59,-122.12,19.293,33.582,0.111
19960810,052906,278946,30.574,-122.147,19.379,33.604,0.111
19960810,053945,279585,30.558,-122.175,19.381,33.617,0.109
19960810,054926,280166,30.542,-122.203,19.512,33.669,0.107
19960810,055908,280748,30.527,-122.231,19.473,33.646,0.107
19960810,060948,281388,30.515,-122.255,19.494,33.651,0.108
19960810,061929,281969,30.514,-122.26,19.501,33.652,0.108
19960810,062912,282552,30.513,-122.261,19.498,33.653,0.108
19960810,063951,283191,30.512,-122.262,19.494,33.654,0.107
19960810,064933,283773,30.512,-122.262,19.493,33.659,0.111
19960810,065915,284355,30.511,-122.263,19.499,33.657,0.109
19960810,070959,284999,30.511,-122.265,19.503,33.654,0.109
19960810,071940,285580,30.511,-122.267,19.504,33.658,0.107
19960810,072922,286162,30.512,-122.27,19.507,33.655,0.107
19960810,073904,286744,30.513,-122.274,19.508,33.657,0.107
19960810,074944,287384,30.514,-122.279,19.502,33.655,0.106
19960810,075925,287965,30.514,-122.282,19.503,33.656,0.105
19960810,080907,288547,30.515,-122.284,19.497,33.656,0.105
19960810,081947,289187,30.514,-122.271,19.496,33.659,0.106
19960810,082928,289768,30.514,-122.26,19.507,33.655,0.105
19960810,083910,290350,30.514,-122.261,19.502,33.655,0.105
19960810,084950,290990,30.514,-122.261,19.508,33.652,0.105
19960810,085931,291571,30.513,-122.263,19.499,33.654,0.105
19960810,090913,292153,30.502,-122.286,19.502,33.668,0.107
19960810,091953,292793,30.487,-122.314,19.497,33.664,0.106
19960810,092935,293375,30.473,-122.343,19.482,33.662,0.105
19960810,093917,293957,30.458,-122.37,19.481,33.657,0.105
19960810,094958,294598,30.444,-122.398,19.466,33.658,0.105
19960810,095940,295180,30.429,-122.427,19.47,33.653,0.105
19960810,100922,295762,30.414,-122.454,19.478,33.654,0.106
19960810,101904,296344,30.399,-122.482,19.473,33.641,0.106
19960810,102943,296983,30.385,-122.51,19.474,33.645,0.106
19960810,103926,297566,30.37,-122.539,19.482,33.646,0.106
19960810,104908,298148,30.355,-122.567,19.486,33.647,0.107
19960810,105952,298792,30.339,-122.597,19.501,33.653,0.107
19960810,110934,299374,30.324,-122.627,19.495,33.652,0.107
19960810,111916,299956,30.311,-122.655,19.464,33.647,0.107
19960810,112957,300597,30.297,-122.686,19.455,33.643,0.106